Regional Weather Roundup
Issued by NWS Raleigh/Durham, NC

Home | Current Version | Previous Version | Text Only | Print | Product List | Glossary On
Versions: 1 2 3 4 5 6 7 8 9 10 11 12 13 14 15 16 17 18 19 20 21 22 23 24 25 26 27 28 29 30 31 32 33 34 35 36 37 38 39 40 41 42 43 44 45 46 47 48 49 50
000
ASUS42 KRAH 310310
RWRRAH
NORTH CAROLINA WEATHER ROUNDUP
NATIONAL WEATHER SERVICE RALEIGH NC
1100 PM EDT THU JUL 30 2015

NOTE: "FAIR" INDICATES FEW OR NO CLOUDS BELOW 12,000 FEET WITH NO
SIGNIFICANT WEATHER AND/OR OBSTRUCTIONS TO VISIBILITY.

NCZ001-053-055-056-065-067-310400-
WESTERN NORTH CAROLINA

CITY           SKY/WX    TMP DP  RH WIND       PRES   REMARKS
ASHEVILLE      CLEAR     78  66  66 N13       30.07R
JEFFERSON      CLEAR     70  61  74 CALM      30.14R
MORGANTON      PTCLDY    82  66  60 N5        30.05R
HICKORY        CLEAR     82  65  56 N5        29.99R
RUTHERFORDTON  CLEAR     83  67  58 N9        29.98S
MOUNT AIRY     PTCLDY    80  67  63 N3        30.03R
BOONE          PTCLDY    71  61  71 W5        30.15R
$$

NCZ021-022-025-041-071-084-088-310400-
CENTRAL NORTH CAROLINA

CITY           SKY/WX    TMP DP  RH WIND       PRES   REMARKS
CHARLOTTE      MOCLDY    84  71  65 N9G20     29.95R
GREENSBORO     MOCLDY    79  74  84 CALM      29.97R THUNDER
WINSTON-SALEM  PTCLDY    81  71  71 NE5       29.99R
RALEIGH-DURHAM PTCLDY    80  75  84 CALM      29.92S
FORT BRAGG     NOT AVBL
FAYETTEVILLE   CLOUDY    80  73  79 CALM      29.90S
BURLINGTON     MOCLDY    82  75  79 NW6       29.95R
LAURINBURG     PTCLDY    79  74  84 S3        29.92S
$$

NCZ011-015-027-028-043-044-047-080-103-310400-
NORTHEASTERN NORTH CAROLINA

CITY           SKY/WX    TMP DP  RH WIND       PRES   REMARKS
ROCKY MT-WILSO PTCLDY    78  76  93 CALM      29.91R
GREENVILLE     PTCLDY    81  77  89 S10       29.93S
WASHINGTON     PTCLDY    80  75  82 S6        29.92R
ELIZABETH CITY PTCLDY    80  75  84 S7        29.91S
MANTEO         MOCLDY    82  75  80 S15       29.92S
CAPE HATTERAS  PTCLDY    82  75  79 S9        29.92S
$$

NCZ078-087-090-091-093-098-101-310400-
SOUTHEASTERN NORTH CAROLINA

CITY           SKY/WX    TMP DP  RH WIND       PRES   REMARKS
LUMBERTON      LGT RAIN  79  76  90 SW3       29.90F
GOLDSBORO      CLOUDY    82  76  84 SE5       29.89S
KINSTON        CLOUDY    81  75  83 S5        29.92S
KENANSVILLE    PTCLDY   N/A N/A N/A CALM      29.93S
NEW BERN       PTCLDY    78  74  87 CALM      29.92S
CHERRY POINT   PTCLDY    79  75  87 CALM      29.92S
BEAUFORT       PTCLDY    80  76  87 CALM      29.91S
JACKSONVILLE   PTCLDY    78  74  87 CALM      29.91R
WILMINGTON     CLEAR     79  75  87 CALM      29.91R
$$



USA.gov is the U.S. government's official web portal to all federal, state and local government web resources and services.